sat.trackr.live / text

‹ back to catalog

STARLINK-11741 [DTC]

NORAD 64064 · 2025-107A

PAYLOAD ACTIVE UNKNOWN

§ Identity

Operator
Country
US
Launch date
2025-05-21
Launch site
AFETR
Launch vehicle
Mass (kg)
RCS (m²)

Purposes: comms

External: N2YO · Heavens-Above · Gunter

§ Orbital elements

Epoch: 2026-09-20T13:58:37.234560Z

Period
91.67 min
Inclination
43.0008°
Eccentricity
0.0001963
Mean motion
15.70915985 rev/d
Perigee alt
355.0 km
Apogee alt
357.6 km
Semi-major
6,734.4 km
B*
1.3260e-3
RAAN
4.0201°
Arg perigee
260.4302°
Mean anomaly
99.6344°
Rev number
7,794

§ Raw data

STARLINK-11741 [DTC]1 64064U 25107A   26263.58237540  .00173864  00000+0  13260-2 0  99902 64064  43.0008   4.0201 0001963 260.4302  99.6344 15.70915985 77942

JSON: /api/v1/satellites/64064 · /tle

For live sub-satellite position, see the globe view (requires WebGL).

§ Visibility from observer

Set your observer location to see the next 7 days of passes ≥ 10°. The values pass through the URL so the page stays shareable.

No JS? Fill the form by hand. The geolocation button needs JavaScript.